This demonstration page uses our WeatherBlox Daily Observations layout. Learn more.

Left ArrowRight Arrow

36.17497, -115.13722

Hourly Observations for September 13, 2015

Temp ( °F °C ) Dew Point ( °F °C ) Humidity (%) Winds ( mph kmh ) Pressure ( in mb ) Visibility ( mi km ) Precip ( " mm )
12:53 am 00:53 Clear 84 28.9 48 8.9 29 29 W 6 9 29.83 1010 10 16 N/A
1:53 am 01:53 Clear 83 28.3 48 8.9 30 30 W 6 9 29.82 1010 10 16 N/A
2:53 am 02:53 Clear 81 27.2 49 9.4 33 33 NW 6 9 29.83 1010 10 16 N/A
3:53 am 03:53 Clear 80 26.7 50 10 35 35 N 6 9 29.82 1010 10 16 N/A
4:53 am 04:53 Clear 78 25.6 48 8.9 35 35 NNW 3 6 29.82 1010 10 16 N/A
5:53 am 05:53 Clear 78 25.6 45 7.2 31 31 NNW 7 11 29.83 1010 10 16 N/A
6:53 am 06:53 Sunny 78 25.6 48 8.9 35 35 NNW 7 11 29.85 1011 10 16 N/A
7:53 am 07:53 Sunny 82 27.8 50 10 33 33 N 6 9 29.85 1011 10 16 N/A
8:53 am 08:53 Sunny 86 30 51 10.6 30 30 N N/A 29.85 1011 10 16 N/A
9:53 am 09:53 Sunny 88 31.1 51 10.6 28 28 ESE 5 7 29.85 1011 10 16 N/A
10:53 am 10:53 Sunny 91 32.8 50 10 25 25 ESE 6 9 29.83 1010 10 16 N/A
11:53 am 11:53 Sunny 94 34.4 50 10 22 22 undefined N/A 29.81 1010 10 16 N/A
12:53 pm 12:53 Sunny 97 36.1 48 8.9 19 19 ESE 9 15 29.78 1008 10 16 N/A
1:53 pm 13:53 Sunny 97 36.1 47 8.3 18 18 SW 12 19 29.75 1007 10 16 N/A
2:53 pm 14:53 Sunny 98 36.7 45 7.2 16 16 S 14 22 29.72 1006 10 16 N/A
3:53 pm 15:53 Sunny 97 36.1 47 8.3 18 18 SE 14 22 29.70 1006 10 16 N/A
4:53 pm 16:53 Sunny 96 35.6 46 7.8 18 18 SSE 9 15 29.67 1005 10 16 N/A
5:53 pm 17:53 Sunny 97 36.1 43 6.1 16 16 SW 10 17 29.66 1004 10 16 N/A
6:53 pm 18:53 Clear 96 35.6 42 5.6 15 15 WSW 8 13 29.67 1005 10 16 N/A
7:53 pm 19:53 Clear 94 34.4 43 6.1 17 17 SW 8 13 29.67 1005 10 16 N/A
8:53 pm 20:53 Clear 92 33.3 44 6.7 19 19 WSW 3 6 29.70 1006 10 16 N/A
9:53 pm 21:53 Clear 89 31.7 49 9.4 25 25 ENE 18 30 29.72 1006 10 16 N/A
10:53 pm 22:53 Clear 87 30.6 51 10.6 29 29 E 18 30 29.72 1007 10 16 N/A
11:53 pm 23:53 Clear 82 27.8 53 11.7 37 37 E 15 24 29.75 1007 10 16 N/A

Powered by AerisWeather